Content
SEND FEEDBACK

Daily
Averages
Monthly
Summary
United States of America

BROOKLYN, NEW YORK


Home > North America > United States > New York
Elevation: 2 feet     Latitude: 40 36N     Longitude: 073 59W

WEATHER
 
SELECT A DAY
Number of Records: 187,574;   Date Range: 1/1/95 - 9/30/14
 
SHARE

PRINT THIS DATA

[ ← Previous Day ]
WEATHER ALMANAC - JULY 21, 2013
[ Next Day → ]
[ °C ]   °F
Weather ElementAverageHighLow
Temperature80.7 °F88 °F (12:51 pm)75 °F (9:51 pm)
Dewpoint66.3 °F72 °F (3:51 am)60.1 °F (9:51 am)
Humidity63.4 %87 % (9:51 pm)41 % (11:51 am)
Barometer29.92 in29.97 in (9:51 pm)29.85 in (3:51 am)
Wind Speed8.5 mph13.8 mph (1:51 pm)
Weather ElementAverage
Visibility10 mi
Wind DirectionSE (131.3 °)

Weather ElementTotal
Precipitation---
Cooling Degree Days16.5 (Base 65)
Growing Degree Days31.5 (Base 50)
Averaged from 23 records on July 21, 2013
WEATHER CONDITIONS BREAKOUT
WIND DIRECTION BREAKOUT
WEATHER BY HOUR - JULY 21, 2013
[ °C ]   °F
Local TimeTemperatureDewpointHumidityBarometerVisibilityWind DirectionWind SpeedGust SpeedPrecipitationEventsConditions
1:51 AM77.0 °F71.1 °F82 %29.86 in10.0 miSSW (210°)4.6 mphMostly Cloudy
2:51 AM78.1 °F71.1 °F79 %29.86 in10.0 miSW (220°)8.1 mphMostly Cloudy
3:51 AM79.0 °F72.0 °F79 %29.85 in10.0 miWSW (240°)10.4 mphMostly Cloudy
4:51 AM78.1 °F70.0 °F76 %29.86 in10.0 miWSW (250°)8.1 mphMostly Cloudy
5:51 AM79.0 °F71.1 °F77 %29.88 in10.0 miNNW (340°)5.8 mphMostly Cloudy
6:51 AM79.0 °F66.9 °F66 %29.89 in10.0 miNNE (30°)12.7 mphScattered Clouds
7:51 AM81.0 °F62.1 °F52 %29.91 in10.0 miNNE (30°)10.4 mphMostly Cloudy
8:51 AM81.0 °F61.0 °F50 %29.92 in10.0 miNE (50°)5.8 mphMostly Cloudy
9:51 AM82.9 °F60.1 °F46 %29.93 in10.0 miENE (70°)8.1 mphMostly Cloudy
10:51 AM84.0 °F60.1 °F44 %29.94 in10.0 miNE (40°)9.2 mphMostly Cloudy
11:51 AM87.1 °F61.0 °F41 %29.94 in10.0 miENE (60°)9.2 mphMostly Cloudy
12:51 PM88.0 °F64.0 °F45 %29.95 in10.0 miSE (130°)8.1 mphMostly Cloudy
1:51 PM88.0 °F63.0 °F43 %29.94 in10.0 miSE (130°)13.8 mphMostly Cloudy
2:51 PM84.9 °F62.1 °F46 %29.94 in10.0 miSE (130°)13.8 mphMostly Cloudy
3:51 PM84.0 °F61.0 °F46 %29.94 in10.0 miSE (140°)9.2 mphMostly Cloudy
4:51 PM82.9 °F63.0 °F51 %29.93 in10.0 miSE (130°)9.2 mphMostly Cloudy
5:51 PM82.9 °F64.9 °F54 %29.93 in10.0 miESE (120°)12.7 mphMostly Cloudy
6:51 PM80.1 °F66.9 °F64 %29.94 in10.0 miSE (130°)9.2 mphOvercast
7:51 PM77.0 °F69.1 °F76 %29.94 in10.0 miSE (140°)10.4 mphMostly Cloudy
8:51 PM75.9 °F70.0 °F82 %29.96 in10.0 miSSE (150°)6.9 mphOvercast
9:51 PM75.0 °F71.1 °F87 %29.97 in10.0 miSE (130°)3.5 mphMostly Cloudy
10:51 PM75.9 °F71.1 °F85 %29.97 in10.0 miENE (70°)3.5 mphOvercast
11:51 PM75.0 °F71.1 °F87 %29.96 in10.0 miEast (80°)3.5 mphMostly Cloudy
Hourly data recorded from KJFK, located miles away from Brooklyn, New York







STORIES FROM OUR PARTNERS